User: anonymous   Login
Location: ????????
(54.9045°N, 39.1041°E)
Time: 14:08:30
(UTC+00:00)
Language:

Cosmos 1371 Rocket - Orbit

View from above orbital plane
View from above orbital plane
View from above satellite
View from above satellite

Ground track
Ground track

The orbit data is extracted from the following two-line orbital elements,

1 13242U 82051B   24173.90069610  .00000318  00000-0  11646-3 0  9999
2 13242  74.0441 331.6780 0025479 263.4391  96.3861 14.36676268201079
Epoch (UTC): 21 June 2024 21:37:00
Eccentricity: 0.0025479
inclination: 74.0441°
perigee height: 751 km
apogee height: 788 km
right ascension of ascending node: 331.6780°
argument of perigee: 263.4391°
revolutions per day: 14.36676268
mean anomaly at epoch: 96.3861°
orbit number at epoch: 20107

The dashed part of the orbit path shows where the satellite is in the earth's shadow,  

DLR